Probability
0 0 0 0 0 0 0 0 0 0 0 0 0 0 0 0 0 0 0 0 0 0 0 0 0 0 0 0 0 0 0 0 0 0 0 0 0 0 0 0 0 0 0
0 0 0 0 0 0 0 0 0 0 0 0 0 0 0 0 0 0 0 0 0 0 0 0 0 0 0 0 0 0 0 0 0 0 0 0 0 0 0 0 0 0 0
0 0 0 0 0 0 0 0 0 0 0 0 0 0 0 0 0 0 0 0 0 0 0 0 0 0 0 0 0 0 0 0 0 0 0 0 0 0 0 0 0 0 0
0 0 0 0 0 0 0 0 0 0 0 0 0 0 0 0 0 0 0 0 0 0 0 0 0 0 0 0 0 0 0 0 0 0 0 0 0 0 0 0 0 0 0
0 0 0 0 0 0 0 0 0 0 0 0 0 0 0 0 0 0 0 0 0 0 0 0 0 0 0 0 0 0 0 0 0 0 0 0 0 0 0 0 0 0 0
0 0 0 0 0 0 0 0 0 0 0 0 0 0 0 0 0 0 0 0 0 0 0 0 0 0 0 0 0 0 0 0 0 0 0 0 0 0 0 0 0 0 0
0 0 0 0 0 0 0 0 0 0 0 0 0 0 0 0 0 0 0 0 0 0 0 0 0 0 0 0 0 0 0 0 0 0 0 0 0 0 0 0 0 0 0
0 0 0 0 0 0 0 0 0 0 0 0 0 0 0 0 0 0 0 0 0 0 0 0 0 0 0 0 0 0 0 0 0 0 0 0 0 0 0 0 0 0 0
0 0 0 0 0 0 0 0 0 0 0 0 0 0 0 0 0 0 0 0 0 0 0 0 0 0 0 0 0 0 0 0 0 0 0 0 0 0 0 0 0 0 0
0 0 0 0 0 0 0 0 0 0 0 0 0 0 0 0 0 0 0 0 0 0 0 0 0 0 0 0 0 0 0 0 0 0 0 0 0 0 0 0 0 0 0
0 0 0 0 0 0 0 0 0 0 0 0 0 0 0 0 0 0 0 0 0 0 0 0 0 0 0 0 0 0 0 0 0 0 0 0 0 0 0 0 0 0 0
0 0 0 0 0 0 0 0 0 0 0 0 0 0 0 0 0 0 0 0 0 0 0 0 0 0 0 0 0 0 0 0 0 0 0 0 0 0 0 0 0 0 0
0 0 0 0 0 0 0 0 0 0 0 0 0 0 0 0 0 0 0 0 0 0 0 0 0 0 0 0 0 0 0 0 0 0 0 0 0 0 0 0 0 0 0
0 0 0 0 0 0 0 0 0 0 0 0 0 0 0 0 0 0 0 0 0 0 0 0 0 0 0 0 0 0 0 0 0 0 0 0 0 0 0 0 0 0 0
0 0 0 0 0 0 0 0 0 0 0 0 0 0 0 0 0 0 0 0 0 0 0 0 0 0 0 0 0 0 0 0 0 0 0 0 0 0 0 0 0 0 0
0 0 0 0 0 0 0 0 0 0 0 0 0 0 0 0 0 0 0 0 0 0 0 0 0 0 0 0 0 0 0 0 0 0 0 0 0 0 0 0 0 0 0
0 0 0 0 0 0 0 0 0 0 0 0 0 0 0 0 0 0 0 0 0 0 0 0 0 0 0 0 0 0 0 0 0 0 0 0 0 0 0 0 0 0 0
0 0 0 0 0 0 0 0 0 0 0 0 0 0 0 0 0 0 0 0 0 0 0 0 0 0 0 0 0 0 0 0 0 0 0 0 0 0 0 0 0 0 0
0 0 0 0 0 0 0 0 0 0 0 0 0 0 0 0 0 0 0 0 0 0 0 0 0 0 0 0 0 0 0 0 0 0 0 0 0 0 0 0 0 0 0
0 0 0 0 0 0 0 0 0 0 0 0 0 0 0 0 0 0 0 0 0 0 0 0 0 0 0 0 0 0 0 0 0 0 0 0 0 0 0 0 0 0 0
0 0 0 0 0 0 0 0 0 0 0 0 0 0 0 0 0 0 0 0 0 0 0 0 0 0 0 0 0 0 0 0 0 0 0 0 0 0 0 0 0 0 0
0 0 0 0 0 0 0 0 0 0 0 0 0 0 0 0 0 0 0 0 0 0 0 0 0 0 0 0 0 0 0 0 0 0 0 0 0 0 0 0 0 0 0
0 0 0 0 0 0 0 0 0 0 0 0 0 0 0 0 0 0 0 0 0 0 0 0 0 0 0 0 0 0 0 0 0 0 0 0 0 0 0 0 0 0 0
0 0 0 0 0 0 0 0 0 0 0 0 0 0 0 0 0 0 0 0 0 0 0 0 0 0 0 0 0 0 0 0 0 0 0 0 0 0 0 0 0 0 0
0 0 0 0 0 0 0 0 0 0 0 0 0 0 0 0 0 0 0 0 0 0 0 0 0 0 0 0 0 0 0 0 0 0 0 0 0 0 0 0 0 0 0
0 0 0 0 0 0 0 0 0 0 0 0 0 0 0 0 0 0 0 0 0 0 0 0 0 0 0 0 0 0 0 0 0 0 0 0 0 0 0 0 0 0 0
Height
5592 5592 5592 5593 5593 5594 5594 5595 5595 5595 5596 5596 5596 5596 5597 5596 5596 5597 5597 5598 5598 5599 5599 5600 5600 5600 5600 5600 5600 5599 5598 5598 5599 5599 5598 5597 5596 5595 5595 5595 5595 5596 5596
5581 5581 5581 5581 5581 5582 5582 5582 5583 5583 5583 5583 5583 5584 5584 5584 5583 5583 5584 5584 5585 5585 5585 5585 5585 5585 5585 5584 5584 5583 5583 5582 5582 5583 5582 5580 5579 5578 5578 5578 5578 5578 5579
5570 5570 5569 5569 5569 5569 5570 5570 5570 5570 5570 5570 5571 5571 5571 5570 5570 5570 5570 5570 5570 5571 5571 5571 5570 5570 5569 5569 5568 5568 5567 5566 5565 5565 5565 5564 5563 5562 5562 5562 5562 5562 5562
5559 5558 5558 5558 5557 5557 5557 5557 5557 5557 5557 5557 5557 5557 5557 5557 5557 5557 5556 5556 5556 5556 5556 5556 5555 5554 5554 5553 5552 5552 5551 5550 5549 5549 5548 5548 5547 5546 5546 5546 5546 5545 5545
5547 5547 5547 5546 5546 5545 5545 5545 5544 5544 5544 5544 5544 5544 5544 5543 5543 5543 5542 5542 5541 5541 5541 5540 5540 5539 5538 5537 5536 5536 5535 5534 5533 5533 5532 5531 5531 5530 5530 5529 5529 5529 5529
5536 5535 5535 5534 5534 5534 5533 5532 5532 5531 5531 5531 5531 5530 5530 5529 5529 5528 5528 5527 5526 5526 5525 5525 5524 5524 5523 5522 5521 5520 5519 5518 5518 5517 5516 5515 5515 5514 5513 5513 5513 5513 5514
5524 5524 5523 5523 5522 5522 5521 5520 5520 5519 5518 5518 5517 5517 5516 5515 5514 5514 5513 5512 5511 5511 5510 5509 5509 5508 5507 5506 5505 5504 5503 5502 5502 5501 5500 5499 5499 5498 5498 5497 5496 5496 5496
5513 5513 5512 5511 5511 5510 5509 5508 5507 5506 5506 5505 5504 5503 5502 5501 5500 5499 5498 5497 5496 5495 5494 5494 5493 5493 5492 5491 5490 5489 5488 5487 5486 5486 5485 5484 5482 5481 5481 5481 5480 5480 5480
5502 5501 5501 5500 5499 5498 5497 5496 5495 5494 5493 5492 5491 5489 5488 5487 5486 5485 5483 5482 5481 5480 5480 5479 5479 5478 5477 5476 5476 5475 5474 5473 5471 5470 5469 5468 5467 5466 5464 5464 5464 5464 5464
5491 5490 5489 5488 5487 5486 5485 5484 5482 5481 5480 5478 5477 5476 5475 5473 5472 5471 5469 5468 5468 5467 5467 5466 5465 5464 5463 5461 5461 5460 5459 5458 5457 5455 5454 5453 5452 5450 5449 5448 5447 5447 5447
5479 5479 5478 5477 5476 5475 5473 5472 5470 5469 5468 5466 5465 5463 5462 5460 5458 5457 5455 5454 5454 5453 5453 5452 5451 5450 5449 5447 5447 5446 5445 5443 5442 5441 5440 5438 5437 5436 5434 5433 5432 5431 5431
5469 5468 5467 5466 5465 5463 5462 5460 5459 5457 5456 5454 5452 5450 5448 5446 5445 5443 5442 5441 5440 5440 5439 5439 5438 5436 5435 5434 5433 5432 5431 5429 5428 5427 5426 5424 5423 5422 5420 5419 5417 5416 5415
5458 5457 5456 5455 5454 5453 5451 5450 5448 5446 5444 5442 5440 5438 5435 5433 5432 5430 5429 5428 5427 5427 5426 5425 5424 5423 5422 5421 5420 5418 5417 5416 5415 5413 5412 5411 5409 5407 5406 5405 5403 5402 5401
5447 5446 5445 5444 5443 5442 5440 5438 5436 5434 5432 5430 5428 5425 5423 5421 5420 5418 5417 5416 5415 5414 5413 5412 5411 5410 5409 5407 5406 5405 5404 5403 5401 5400 5399 5397 5395 5394 5393 5391 5390 5389 5388
5436 5435 5435 5434 5432 5431 5429 5427 5425 5423 5420 5418 5416 5413 5411 5410 5408 5406 5405 5404 5403 5402 5401 5400 5399 5398 5397 5395 5394 5393 5391 5390 5389 5387 5386 5384 5383 5381 5379 5378 5377 5375 5374
5425 5424 5424 5423 5421 5420 5418 5416 5413 5411 5409 5406 5404 5402 5400 5398 5396 5395 5394 5393 5392 5391 5390 5388 5387 5386 5385 5383 5382 5381 5379 5378 5376 5375 5373 5372 5370 5369 5367 5366 5364 5363 5362
5414 5413 5412 5411 5410 5409 5407 5405 5403 5400 5398 5395 5393 5391 5389 5387 5386 5385 5383 5382 5381 5380 5379 5377 5376 5375 5374 5372 5371 5369 5368 5366 5364 5363 5361 5359 5358 5357 5355 5354 5352 5351 5350
5404 5403 5401 5400 5399 5398 5396 5394 5392 5390 5388 5385 5383 5381 5379 5377 5376 5374 5373 5371 5370 5369 5367 5366 5365 5363 5362 5361 5359 5358 5356 5354 5353 5351 5349 5347 5346 5345 5343 5342 5341 5339 5338
5393 5392 5391 5390 5388 5387 5385 5383 5381 5379 5377 5375 5373 5371 5369 5367 5365 5363 5362 5360 5359 5357 5356 5355 5353 5352 5351 5349 5348 5346 5345 5343 5341 5339 5338 5336 5335 5333 5332 5331 5329 5328 5327
5383 5382 5380 5379 5378 5376 5375 5373 5371 5369 5367 5365 5363 5361 5359 5356 5354 5353 5351 5349 5348 5346 5345 5343 5342 5341 5340 5338 5337 5335 5333 5332 5330 5328 5327 5325 5323 5322 5321 5320 5319 5318 5317
5373 5372 5370 5369 5367 5366 5364 5363 5361 5359 5357 5355 5352 5350 5348 5346 5344 5342 5340 5338 5336 5335 5334 5332 5331 5330 5329 5327 5326 5324 5322 5321 5319 5317 5315 5314 5313 5312 5311 5310 5309 5308 5308
5363 5361 5360 5359 5357 5355 5354 5352 5350 5349 5347 5344 5342 5339 5337 5335 5333 5331 5329 5327 5326 5324 5323 5322 5320 5319 5318 5316 5315 5313 5311 5310 5308 5306 5305 5304 5303 5302 5301 5301 5300 5300 5300
5353 5351 5350 5348 5347 5345 5343 5342 5340 5338 5336 5334 5332 5329 5327 5325 5323 5321 5319 5317 5315 5314 5312 5311 5310 5308 5307 5306 5304 5303 5302 5300 5298 5296 5295 5294 5293 5293 5292 5292 5292 5291 5291
5343 5341 5340 5338 5336 5335 5333 5331 5329 5328 5326 5324 5321 5319 5317 5315 5313 5310 5309 5307 5305 5303 5302 5300 5299 5298 5297 5295 5294 5293 5291 5290 5288 5287 5286 5285 5284 5284 5284 5283 5283 5283 5283
5333 5331 5330 5328 5326 5324 5322 5321 5319 5317 5315 5314 5312 5310 5307 5305 5303 5301 5299 5297 5295 5294 5292 5291 5290 5288 5287 5286 5285 5283 5282 5281 5279 5278 5277 5277 5276 5276 5275 5275 5275 5275 5275
5323 5322 5320 5318 5317 5315 5313 5311 5309 5307 5305 5304 5302 5300 5298 5296 5294 5292 5290 5288 5286 5285 5283 5282 5280 5279 5278 5277 5276 5274 5273 5272 5271 5269 5269 5268 5268 5268 5268 5268 5268 5267 5268
Wind_Speed
42 42 43 44 44 44 44 44 45 45 46 46 47 47 47 48 49 49 50 50 51 51 52 52 53 54 54 54 55 55 55 57 57 56 57 57 58 59 59 59 58 59 59
41 42 43 44 44 44 44 44 45 46 46 47 47 47 48 48 48 49 50 51 51 52 53 53 54 54 55 55 55 55 55 56 57 56 56 57 57 57 57 58 58 58 58
41 42 43 43 43 44 45 45 46 47 47 47 47 47 48 48 48 49 50 51 52 52 53 54 54 55 55 55 56 55 55 55 56 56 55 56 56 56 56 56 57 58 58
41 41 42 42 42 43 45 46 47 47 47 47 48 48 48 48 48 49 50 51 52 52 53 54 54 55 55 55 55 55 55 55 56 55 55 55 55 55 56 56 56 57 56
40 40 41 41 42 43 44 45 45 45 46 46 47 48 48 49 49 50 50 51 52 53 53 54 54 54 54 54 54 55 55 55 55 55 54 54 55 55 56 55 55 55 55
40 41 41 42 42 43 43 43 43 44 45 46 47 48 49 50 50 51 51 52 52 53 53 54 54 54 54 54 54 54 54 55 55 55 54 54 54 55 55 54 54 55 54
40 40 41 41 41 42 42 43 43 44 45 46 47 48 49 50 50 51 52 52 53 53 53 53 52 52 53 53 53 53 54 53 54 54 54 54 54 54 55 54 54 54 53
40 40 40 41 41 42 42 42 44 45 46 47 47 48 48 49 50 51 52 52 52 53 52 52 51 51 51 51 50 51 52 52 52 52 52 52 53 53 54 54 54 54 54
39 39 39 40 41 42 42 43 44 44 45 45 46 47 48 49 50 51 51 51 51 51 50 50 50 50 50 50 50 49 50 50 51 51 51 51 51 52 53 53 54 54 54
37 38 39 40 41 41 42 42 43 43 44 44 45 46 47 48 49 49 50 49 49 49 49 49 48 48 48 48 49 49 49 49 49 49 50 50 50 51 52 52 52 53 54
37 37 38 38 39 40 40 41 41 41 42 42 43 45 45 46 47 47 47 47 47 47 47 47 47 47 47 47 47 47 47 48 48 49 49 49 49 49 50 50 50 51 52
36 36 36 37 37 38 38 39 39 40 42 42 43 44 44 45 45 46 45 45 45 45 45 45 46 46 46 46 46 46 46 46 47 47 47 47 48 48 47 47 48 49 49
36 36 36 36 37 37 38 38 40 41 42 42 43 43 43 44 44 43 43 44 43 43 43 44 44 45 45 45 45 45 45 45 45 45 45 46 46 46 46 46 47 47 47
36 36 36 37 37 37 37 38 39 40 41 41 41 42 42 42 42 41 41 41 41 41 41 41 42 42 42 42 42 43 43 44 44 44 44 44 44 44 45 46 46 46 45
36 36 36 36 37 37 37 38 38 39 39 39 39 39 39 39 39 39 38 38 38 38 39 39 39 39 39 39 40 41 41 42 42 42 43 43 42 42 43 44 44 44 44
35 35 36 36 36 37 37 37 37 37 37 37 37 37 38 38 37 37 36 36 36 37 38 38 37 37 38 38 39 39 40 40 41 41 42 42 42 41 41 42 42 42 42
33 34 35 36 36 36 36 36 36 36 36 37 37 37 36 35 35 35 35 35 36 36 37 37 37 37 37 38 38 38 39 39 40 41 41 41 41 41 40 41 40 40 40
32 33 33 34 35 35 35 35 35 35 34 35 34 34 33 33 34 34 35 35 35 36 36 36 36 37 37 37 37 38 38 38 39 39 40 39 40 39 39 39 38 38 38
32 32 33 33 33 33 33 33 32 32 32 33 32 32 32 33 34 35 35 35 35 35 35 35 35 36 36 36 37 37 37 37 38 38 37 37 38 39 38 38 37 36 35
31 32 33 33 33 32 32 32 32 31 31 31 31 32 33 33 34 34 35 35 35 34 34 35 35 35 35 36 36 36 36 36 36 36 36 36 36 36 36 35 34 34 33
31 31 31 31 31 31 31 31 31 31 31 31 32 33 33 33 33 34 34 34 34 34 34 34 35 35 35 36 36 36 36 36 36 36 35 35 34 33 32 32 31 31 30
30 30 30 31 31 31 31 31 31 31 31 31 32 32 32 32 32 32 32 32 33 33 34 34 35 35 35 35 34 34 34 34 34 34 33 33 32 31 29 29 28 28 29
29 29 30 30 30 30 30 30 31 31 31 31 31 31 31 31 31 31 32 32 32 33 33 33 33 33 33 32 32 32 32 32 32 32 31 30 29 29 28 27 27 26 27
28 28 28 29 29 29 29 30 30 30 31 31 31 30 30 30 30 30 30 31 31 31 31 31 31 31 30 30 30 30 30 30 30 29 28 27 26 26 26 26 25 25 25
27 28 28 28 28 29 29 29 30 30 30 30 29 29 29 29 29 28 29 29 29 28 28 29 28 29 29 29 29 29 28 28 27 26 26 25 25 25 25 25 25 25 24
28 28 28 28 29 29 29 29 29 29 29 29 29 28 28 28 27 27 27 27 27 27 27 27 27 27 27 27 27 27 26 26 25 25 25 24 24 23 23 23 23 23 23
Wind_Direction
264 263 263 262 261 261 261 261 262 263 263 264 264 264 265 267 267 266 266 266 266 266 267 268 269 270 271 271 272 272 272 272 271 271 270 270 269 269 269 269 269 269 268
264 263 263 263 262 261 261 261 262 262 264 265 265 265 266 267 268 267 266 266 266 267 268 269 270 271 272 272 272 272 272 272 272 271 271 270 270 269 269 269 269 268 268
263 263 263 263 262 261 261 261 262 263 264 265 266 266 267 267 268 268 268 267 267 268 268 269 271 271 272 272 272 272 272 273 273 272 272 271 270 269 269 269 268 268 268
264 264 264 263 263 263 262 262 263 264 265 265 266 266 267 267 267 268 269 269 268 269 269 270 271 272 272 272 272 272 272 272 273 273 272 271 270 269 269 270 269 269 268
264 264 264 265 264 265 265 265 266 266 266 265 266 266 268 268 268 269 271 271 270 270 271 271 272 272 272 272 272 272 272 272 273 273 272 271 270 270 270 270 270 269 268
265 265 265 265 266 266 267 267 266 266 266 267 267 267 268 269 269 270 271 272 272 272 272 271 271 271 272 272 272 272 272 272 273 273 273 272 271 271 271 271 270 269 268
266 266 266 266 267 268 268 268 267 267 267 267 268 268 269 270 270 270 272 274 274 273 273 272 271 271 271 271 271 272 271 272 272 273 273 272 271 271 271 271 270 269 267
266 266 266 266 267 268 268 268 268 268 268 268 269 269 270 271 272 272 274 274 274 273 272 272 272 272 271 271 271 271 271 271 272 273 273 273 273 272 271 271 270 269 268
266 266 267 268 268 269 270 270 270 270 270 270 271 272 272 273 274 274 274 274 273 272 272 272 272 272 272 272 272 272 272 271 272 272 273 273 273 272 272 271 270 270 269
266 267 268 269 269 271 271 271 270 271 271 272 272 273 273 274 274 274 274 273 272 272 272 272 273 273 273 273 273 273 272 272 272 273 273 273 273 273 273 272 272 271 270
267 268 268 269 270 271 271 271 271 272 273 273 274 274 274 274 274 274 274 273 273 273 272 272 273 273 274 274 274 274 274 273 273 274 274 274 274 273 273 273 273 272 272
269 270 269 270 271 272 272 273 273 273 275 275 275 276 275 275 274 274 274 274 274 273 273 273 273 274 274 274 274 275 275 275 274 274 274 274 274 274 273 273 272 272 272
269 270 270 272 273 273 274 275 275 276 277 278 278 277 277 276 276 276 275 275 274 274 273 274 274 274 274 274 274 275 275 275 275 275 276 276 275 273 273 273 273 273 273
270 271 272 273 274 274 276 277 277 278 279 279 278 278 277 276 276 276 275 274 274 274 274 274 274 274 275 273 273 274 275 276 276 276 276 276 275 274 274 274 273 273 273
270 270 271 272 273 275 277 278 279 280 280 280 279 279 277 277 276 275 273 272 273 274 274 274 273 274 274 273 273 273 275 276 276 277 277 277 276 275 276 275 274 273 273
270 271 271 272 274 275 277 279 280 281 280 280 280 280 279 277 275 273 273 273 274 274 274 274 274 274 274 274 274 274 276 276 276 277 277 277 276 275 276 276 275 274 273
272 273 273 274 274 276 277 279 280 281 281 282 282 280 278 276 274 274 274 274 274 275 275 274 273 273 273 274 275 276 276 277 277 277 277 276 276 276 276 277 276 275 274
274 275 275 275 276 276 278 280 281 282 282 282 281 279 277 277 276 275 275 275 276 275 275 274 274 273 274 274 275 276 277 278 279 279 278 276 276 276 277 277 276 275 273
275 276 276 277 277 278 279 281 282 282 281 280 279 278 279 279 278 277 276 276 277 276 274 273 273 274 274 275 275 276 278 280 280 280 278 277 277 277 277 277 275 274 272
278 278 277 278 278 279 280 281 282 282 282 281 280 280 281 280 279 279 278 278 277 276 275 274 274 275 275 276 277 278 279 279 280 280 278 278 277 277 276 275 274 272 270
278 279 279 279 279 279 280 280 281 281 282 282 283 282 281 281 280 280 279 278 278 277 276 275 274 275 277 277 278 279 280 280 280 279 278 277 276 276 275 273 272 269 267
277 277 278 278 278 279 279 279 280 281 281 282 283 282 282 281 281 280 279 279 278 278 276 276 276 277 278 278 278 279 280 280 280 279 277 276 275 274 273 272 270 268 265
277 278 278 279 279 279 280 279 279 280 281 282 283 284 283 282 282 281 281 281 279 279 278 278 278 278 278 278 278 279 279 280 280 278 276 274 273 271 271 271 269 267 265
279 280 281 281 281 281 280 280 281 281 282 283 285 285 285 284 284 283 282 282 281 280 278 278 278 278 278 278 278 279 280 280 279 277 274 271 270 270 269 269 268 267 266
281 282 282 282 283 283 282 282 282 282 283 283 284 285 285 286 286 285 284 283 281 280 279 279 279 278 278 278 278 278 279 279 278 275 273 271 270 269 269 267 267 267 266
282 282 282 282 283 284 283 282 282 283 283 283 284 285 286 286 286 286 285 284 282 281 279 279 279 279 278 278 277 277 277 277 275 273 272 272 271 269 267 266 266 266 264